When you browse on this site, cookies collect data to enhance your experience and personalize the content and advertising you see.
Visit our Privacy Policy to learn more. By continuing to use the site, you agree to this use of cookies and data.

Hourly Weather Kuznechiki

Today, 10 July, Friday

Time Temperature Precipitation Wind Pressure Humidity
00:00 +9°C° 0 mm 2 mps 747 mmHg 95%
01:00 +9°C° 0 mm 2 mps 747 mmHg 94%
02:00 +8°C° 0 mm 2 mps 747 mmHg 95%
03:00 +9°C° 0 mm 2 mps 748 mmHg 94%
04:00 +10°C° 0 mm 1 mps 748 mmHg 94%
05:00 +11°C° 0 mm 1 mps 748 mmHg 93%
06:00 +13°C° 0 mm 2 mps 748 mmHg 84%
07:00 +15°C° 0 mm 2 mps 749 mmHg 74%
08:00 +17°C° 0 mm 2 mps 749 mmHg 64%
09:00 +18°C° 0 mm 2 mps 749 mmHg 59%
10:00 +19°C° 0 mm 3 mps 749 mmHg 53%
11:00 +21°C° 0 mm 3 mps 749 mmHg 47%
12:00 +21°C° 0.1 mm 3 mps 749 mmHg 46%
13:00 +22°C° 0.1 mm 3 mps 748 mmHg 45%
14:00 +22°C° 0.1 mm 3 mps 748 mmHg 45%
15:00 +22°C° 0 mm 3 mps 748 mmHg 47%
16:00 +22°C° 0 mm 3 mps 748 mmHg 50%
17:00 +21°C° 0 mm 3 mps 748 mmHg 52%
18:00 +19°C° 0.2 mm 3 mps 748 mmHg 63%
19:00 +17°C° 0.2 mm 3 mps 748 mmHg 75%
20:00 +14°C° 0.2 mm 3 mps 748 mmHg 86%
21:00 +14°C° 0.1 mm 3 mps 747 mmHg 87%
22:00 +14°C° 0.1 mm 3 mps 747 mmHg 88%
23:00 +14°C° 0.1 mm 3 mps 747 mmHg 90%

Tomorrow, 11 July, Saturday

Time Temperature Precipitation Wind Pressure Humidity
00:00 +14°C° 0.1 mm 4 mps 746 mmHg 91%
01:00 +15°C° 0.1 mm 4 mps 746 mmHg 92%
02:00 +15°C° 0.1 mm 4 mps 746 mmHg 93%
03:00 +15°C° 0 mm 4 mps 746 mmHg 93%
04:00 +17°C° 0 mm 4 mps 746 mmHg 93%
05:00 +17°C° 0 mm 4 mps 745 mmHg 94%
06:00 +18°C° 0 mm 4 mps 745 mmHg 93%
07:00 +18°C° 0 mm 4 mps 745 mmHg 92%
08:00 +18°C° 0 mm 4 mps 745 mmHg 92%
09:00 +19°C° 0.2 mm 5 mps 745 mmHg 90%
10:00 +19°C° 0.2 mm 5 mps 745 mmHg 89%
11:00 +20°C° 0.2 mm 5 mps 745 mmHg 88%
12:00 +22°C° 0.1 mm 5 mps 744 mmHg 84%
13:00 +23°C° 0.1 mm 5 mps 744 mmHg 80%
14:00 +25°C° 0.1 mm 4 mps 744 mmHg 76%
15:00 +25°C° 0.5 mm 4 mps 744 mmHg 77%
16:00 +25°C° 0.5 mm 4 mps 744 mmHg 78%
17:00 +25°C° 0.5 mm 5 mps 744 mmHg 79%
18:00 +22°C° 0 mm 4 mps 745 mmHg 73%
19:00 +21°C° 0 mm 4 mps 745 mmHg 68%
20:00 +19°C° 0 mm 3 mps 746 mmHg 63%
21:00 +18°C° 0 mm 3 mps 746 mmHg 66%
22:00 +16°C° 0 mm 3 mps 747 mmHg 69%
23:00 +15°C° 0 mm 2 mps 747 mmHg 72%

Day after tomorrow, 12 July, Sunday

Time Temperature Precipitation Wind Pressure Humidity
00:00 +14°C° 0 mm 2 mps 747 mmHg 76%
01:00 +13°C° 0 mm 2 mps 748 mmHg 80%
02:00 +12°C° 0 mm 2 mps 748 mmHg 84%
03:00 +13°C° 0 mm 2 mps 748 mmHg 83%
04:00 +13°C° 0 mm 2 mps 748 mmHg 82%
05:00 +14°C° 0 mm 2 mps 748 mmHg 81%
06:00 +14°C° 0 mm 2 mps 749 mmHg 78%
07:00 +15°C° 0 mm 2 mps 749 mmHg 76%
08:00 +16°C° 0 mm 2 mps 749 mmHg 74%
09:00 +15°C° 0.1 mm 2 mps 749 mmHg 78%
10:00 +15°C° 0.1 mm 2 mps 749 mmHg 82%
11:00 +14°C° 0.1 mm 1 mps 749 mmHg 87%
12:00 +14°C° 0.1 mm 1 mps 749 mmHg 88%
13:00 +14°C° 0.1 mm 1 mps 749 mmHg 89%
14:00 +14°C° 0.1 mm 1 mps 749 mmHg 90%
15:00 +13°C° 0 mm 1 mps 749 mmHg 91%
16:00 +13°C° 0 mm 1 mps 749 mmHg 91%
17:00 +12°C° 0 mm 0 mps 748 mmHg 92%
18:00 +13°C° 0 mm 1 mps 748 mmHg 92%
19:00 +13°C° 0 mm 1 mps 748 mmHg 92%
20:00 +12°C° 0 mm 1 mps 748 mmHg 92%
21:00 +12°C° 0 mm 1 mps 748 mmHg 92%
22:00 +12°C° 0 mm 1 mps 748 mmHg 92%
23:00 +12°C° 0 mm 1 mps 748 mmHg 92%

13 July, Monday

Time Temperature Precipitation Wind Pressure Humidity
00:00 +12°C° 0 mm 1 mps 747 mmHg 92%
01:00 +12°C° 0 mm 1 mps 747 mmHg 92%
02:00 +13°C° 0 mm 1 mps 747 mmHg 92%
03:00 +12°C° 0.3 mm 1 mps 747 mmHg 94%
04:00 +12°C° 0.3 mm 1 mps 746 mmHg 96%
05:00 +12°C° 0.3 mm 2 mps 746 mmHg 98%
06:00 +12°C° 0.3 mm 2 mps 746 mmHg 98%
07:00 +13°C° 0.3 mm 2 mps 746 mmHg 98%
08:00 +13°C° 0.3 mm 2 mps 745 mmHg 98%
09:00 +13°C° 0.5 mm 2 mps 745 mmHg 98%
10:00 +13°C° 0.5 mm 2 mps 745 mmHg 98%
11:00 +13°C° 0.5 mm 2 mps 745 mmHg 98%
12:00 +12°C° 0.2 mm 3 mps 745 mmHg 97%
13:00 +12°C° 0.2 mm 3 mps 744 mmHg 97%
14:00 +13°C° 0.2 mm 3 mps 744 mmHg 97%
15:00 +13°C° 0 mm 3 mps 744 mmHg 97%
16:00 +13°C° 0 mm 3 mps 743 mmHg 96%
17:00 +13°C° 0 mm 3 mps 743 mmHg 96%
18:00 +13°C° 0 mm 3 mps 743 mmHg 96%
19:00 +13°C° 0 mm 3 mps 743 mmHg 96%
20:00 +13°C° 0 mm 3 mps 743 mmHg 97%
21:00 +13°C° 0 mm 3 mps 742 mmHg 96%
22:00 +12°C° 0 mm 3 mps 742 mmHg 96%
23:00 +12°C° 0 mm 3 mps 741 mmHg 96%

14 July, Tuesday

Time Temperature Precipitation Wind Pressure Humidity
00:00 +12°C° 0 mm 3 mps 741 mmHg 96%
01:00 +12°C° 0 mm 4 mps 741 mmHg 95%
02:00 +12°C° 0 mm 4 mps 741 mmHg 95%
03:00 +12°C° 0 mm 4 mps 740 mmHg 94%
04:00 +12°C° 0 mm 4 mps 740 mmHg 94%
05:00 +12°C° 0 mm 4 mps 740 mmHg 93%
06:00 +13°C° 0 mm 4 mps 740 mmHg 89%
07:00 +14°C° 0 mm 4 mps 740 mmHg 85%
08:00 +14°C° 0 mm 4 mps 740 mmHg 81%
09:00 +15°C° 0 mm 4 mps 740 mmHg 77%
10:00 +16°C° 0 mm 5 mps 740 mmHg 74%
11:00 +17°C° 0 mm 5 mps 740 mmHg 71%
12:00 +17°C° 0 mm 5 mps 740 mmHg 68%
13:00 +19°C° 0 mm 5 mps 740 mmHg 65%
14:00 +20°C° 0 mm 5 mps 740 mmHg 61%
15:00 +20°C° 0 mm 4 mps 740 mmHg 61%
16:00 +20°C° 0 mm 4 mps 740 mmHg 61%
17:00 +21°C° 0 mm 4 mps 740 mmHg 60%
18:00 +19°C° 0.1 mm 3 mps 740 mmHg 68%
19:00 +17°C° 0.1 mm 3 mps 740 mmHg 77%
20:00 +16°C° 0.1 mm 3 mps 741 mmHg 85%
21:00 +14°C° 0 mm 3 mps 741 mmHg 84%
22:00 +13°C° 0 mm 3 mps 741 mmHg 82%
23:00 +12°C° 0 mm 3 mps 741 mmHg 81%

15 July, Wednesday

Time Temperature Precipitation Wind Pressure Humidity
00:00 +11°C° 0 mm 3 mps 741 mmHg 81%
01:00 +10°C° 0 mm 3 mps 741 mmHg 81%
02:00 +10°C° 0 mm 3 mps 741 mmHg 81%
03:00 +10°C° 0 mm 3 mps 742 mmHg 81%
04:00 +10°C° 0 mm 3 mps 742 mmHg 81%
05:00 +10°C° 0 mm 3 mps 742 mmHg 80%
06:00 +12°C° 0 mm 4 mps 742 mmHg 72%
07:00 +14°C° 0 mm 4 mps 742 mmHg 64%
08:00 +16°C° 0 mm 5 mps 742 mmHg 56%
09:00 +17°C° 0 mm 5 mps 742 mmHg 53%
10:00 +20°C° 0 mm 5 mps 742 mmHg 49%
11:00 +21°C° 0 mm 5 mps 742 mmHg 46%
12:00 +20°C° 0 mm 5 mps 742 mmHg 50%
13:00 +20°C° 0 mm 5 mps 742 mmHg 53%
14:00 +19°C° 0 mm 4 mps 743 mmHg 57%
15:00 +19°C° 0.1 mm 4 mps 743 mmHg 60%
16:00 +18°C° 0.1 mm 4 mps 743 mmHg 64%
17:00 +18°C° 0.1 mm 3 mps 744 mmHg 67%
18:00 +16°C° 0 mm 3 mps 744 mmHg 74%
19:00 +15°C° 0 mm 2 mps 745 mmHg 81%
20:00 +13°C° 0 mm 1 mps 745 mmHg 87%
21:00 +12°C° 0 mm 1 mps 746 mmHg 90%
22:00 +11°C° 0 mm 1 mps 746 mmHg 93%
23:00 +10°C° 0 mm 1 mps 746 mmHg 95%
Show more